Starlink 31390

operational
NORAD ID: 58937 Int'l Des: 2024-027 Owner: SPXS Country: US Constellation: starlink
LEOCIRCULAR

Starlink 31390について

説明を読み込み中...

リアルタイム位置

3D地球を読み込み中...

次回通過

高度履歴

Altitude vs Time

uPlot chart will show altitude changes over time

軌道要素

1 58937U 24027G 25260.66265689 .00001303 00000-0 56120-4 0 9995
2 58937 53.1621 33.5650 0000785 98.2854 261.8236 15.30189888 90839
Epoch: Sep 17, 2025 • Age: 24 hours

現在のステータス

高度 477.7 km
速度 7.63 km/s
衛星直下点 36.75°N, 62.59°W
打ち上げ日 Feb 10, 2024
運用期間 1.6 years
タイプ internet

技術仕様

分類 Payload
質量 730.00 kg
乾燥質量 700.00 kg
総質量 730.00 kg
長さ 0.30 m
直径 4.10 m
スパン 29.00 m
形状 Box + pan
製造者 SPXS
バスタイプ Starlink V2M
フェーズステータス In Orbit
所有者/国 SPXS/US

大規模コンステレーション

Loading constellations...